Wind_Speed
19 19 19 20 19 13 8 8 8 7 7 6 6 5 5 5 5 5 6 6 7 7 8 9 8 7 6 6 6 6 6 6 7 8 10 10 11 11 12 12 12 12 12 12 12 12 12 12 12
19 18 22 22 15 10 10 9 8 8 7 7 7 6 5 5 5 5 6 6 7 8 9 9 8 7 6 6 6 6 6 7 8 9 10 10 11 12 12 11 12 13 13 13 13 12 12 12 12
21 22 24 16 10 10 10 10 9 8 8 8 8 7 6 6 6 6 6 7 7 8 9 9 8 7 6 6 7 7 7 7 8 8 9 11 12 12 12 12 12 12 13 13 13 12 12 11 11
22 26 20 12 11 12 12 11 10 9 9 9 9 9 8 8 8 7 7 7 8 8 9 9 8 8 7 7 7 7 7 7 8 8 10 11 12 12 12 12 12 12 12 12 12 12 11 11 11
26 22 15 12 13 13 13 12 12 11 11 11 10 9 10 9 9 8 8 8 8 9 9 9 9 8 7 7 7 7 7 7 8 9 9 10 11 12 12 12 12 12 12 12 13 12 11 11 10
23 16 12 13 13 13 14 13 13 13 13 12 11 11 11 11 10 9 8 8 8 9 8 9 9 8 8 7 7 7 7 7 8 9 10 10 10 11 12 12 12 12 12 12 12 11 11 10 9
18 14 12 12 13 14 14 14 14 14 13 13 13 12 12 12 11 10 9 9 8 8 8 8 9 8 8 7 7 7 7 7 8 9 9 9 10 11 12 12 12 12 11 11 11 10 10 9 9
15 12 9 11 12 13 14 14 14 14 14 14 13 12 12 12 12 11 10 9 8 8 8 8 8 8 7 7 7 7 7 7 8 8 9 9 9 10 10 11 11 11 11 11 10 10 9 9 8
13 10 8 9 11 12 13 14 15 15 15 15 14 13 13 13 13 12 11 10 9 8 8 8 8 7 7 7 7 6 6 7 7 8 8 8 9 9 9 9 10 10 9 9 9 9 9 8 7
8 7 6 8 10 12 13 14 15 15 16 16 15 15 14 14 13 12 11 11 10 9 8 7 7 7 7 7 7 6 6 6 6 7 7 7 8 8 9 9 9 8 8 8 8 8 8 7 6
6 6 7 9 11 12 14 14 15 15 16 16 16 15 15 15 14 14 12 11 10 9 9 8 8 7 7 6 6 6 6 6 6 6 6 6 7 7 7 7 7 7 7 7 7 6 6 5 5
5 6 7 9 11 12 13 13 14 15 16 16 16 16 16 15 15 14 13 12 11 10 9 8 8 7 7 6 5 5 5 5 5 5 5 5 5 5 5 5 6 5 6 5 5 5 4 4 4
5 6 8 9 11 12 12 13 14 15 16 16 16 17 17 17 16 16 15 13 12 11 10 9 8 7 7 6 5 5 5 5 4 4 4 4 3 4 4 4 4 4 4 4 3 3 3 2 2
4 5 7 9 10 10 11 13 14 14 15 16 16 16 16 16 16 15 15 14 13 12 11 9 8 7 7 7 6 5 4 4 4 3 3 3 2 2 2 3 3 2 2 2 2 2 1 1 1
4 4 7 8 9 10 10 13 13 14 15 15 16 16 16 16 16 15 15 14 14 13 12 10 9 8 7 7 6 5 4 4 3 3 3 2 2 1 1 1 1 1 1 0 0 0 1 2 2
3 5 7 8 8 8 9 10 12 12 14 15 15 16 16 15 15 15 15 15 14 13 13 11 10 8 7 7 6 6 5 4 3 3 2 2 1 1 0 0 1 1 1 1 1 2 2 3 4
0 1 4 7 8 7 7 8 10 11 12 14 15 15 15 15 16 15 15 15 14 14 13 12 10 9 8 7 7 6 6 5 4 3 2 1 1 1 1 1 1 1 2 2 3 3 4 4 5
2 1 3 6 6 5 4 6 8 10 11 12 14 15 15 14 14 15 14 14 14 14 13 12 11 9 8 7 6 6 6 6 5 4 3 2 2 2 2 2 3 3 3 4 4 4 5 6 6
6 5 5 6 7 3 3 5 8 9 11 11 12 13 14 13 12 13 14 14 14 14 14 13 12 11 9 8 7 7 6 6 6 5 4 3 3 3 3 3 4 5 5 5 5 6 7 7 7
8 6 5 7 7 4 4 5 7 9 10 10 11 11 12 13 12 12 13 13 14 14 14 13 13 12 11 9 8 8 7 7 7 6 6 5 4 4 4 4 4 5 6 6 7 7 8 8 8
10 10 9 8 7 5 5 6 7 9 10 9 9 10 11 12 12 12 12 12 13 14 13 13 13 13 12 11 10 9 9 8 7 7 7 6 5 5 5 6 6 6 6 7 7 8 8 9 9
11 11 11 9 9 7 7 8 8 10 9 9 9 10 11 11 11 11 11 11 12 12 13 13 14 14 13 11 10 10 9 9 8 8 8 7 7 6 6 6 6 7 7 7 8 8 9 10 10
13 12 11 10 10 9 9 9 8 9 8 7 8 9 10 10 9 10 10 11 11 11 12 13 13 13 13 12 12 11 10 9 9 9 8 8 8 8 7 7 7 8 8 8 8 9 10 10 11
15 13 12 12 12 13 11 9 10 10 9 8 7 7 8 9 9 9 10 10 10 10 11 12 13 14 13 13 13 12 11 10 9 9 9 8 8 8 8 8 9 9 9 9 10 10 10 11 11
17 15 12 12 13 12 10 10 13 12 11 10 8 7 8 8 9 9 9 9 10 10 11 12 13 14 13 13 13 13 12 11 10 10 10 10 9 9 9 10 10 10 10 10 11 11 11 11 12
19 17 15 14 13 12 10 12 11 13 13 10 10 8 8 8 8 9 8 9 9 10 11 12 12 13 13 13 13 13 12 12 11 11 11 11 11 11 11 11 10 11 11 11 11 11 12 12 13
20 20 18 17 15 15 13 14 14 13 12 11 10 10 10 9 8 8 9 9 9 10 11 11 12 13 14 14 13 13 12 12 12 13 13 13 13 13 13 13 13 12 12 12 12 12 12 13 13
23 21 20 20 19 18 17 16 14 13 12 13 13 13 12 11 10 10 10 10 10 10 11 11 12 13 14 14 14 14 13 13 13 13 13 14 14 15 14 13 14 14 14 13 13 13 13 14 14
24 23 23 21 20 18 18 17 14 15 14 14 14 14 13 12 12 11 10 11 11 11 11 12 13 13 13 14 14 14 14 14 14 14 15 15 15 16 15 15 15 14 14 14 13 13 14 14 14
25 24 23 24 24 21 20 19 16 16 16 15 15 16 15 13 13 13 12 12 12 12 13 13 13 14 14 14 15 15 14 14 14 14 15 16 16 17 17 16 16 16 15 14 14 14 14 15 15
Wind_Direction
65 63 60 53 49 45 33 28 31 33 33 31 27 26 30 30 30 37 46 46 51 60 60 63 70 70 72 75 80 86 92 94 99 105 109 110 108 109 112 114 115 116 116 118 120 117 115 116 118
65 62 56 48 39 23 25 29 31 35 32 29 32 31 31 26 30 38 49 54 57 64 65 66 69 69 71 78 85 89 93 93 97 103 106 108 110 111 115 115 114 117 115 116 119 120 115 117 116
65 59 55 45 24 15 24 28 29 35 34 33 36 37 37 39 43 46 53 59 62 65 67 69 70 69 71 79 83 90 92 95 94 97 102 108 109 112 115 113 112 112 114 115 117 117 115 114 114
63 56 50 38 17 22 27 29 31 33 39 39 39 40 45 49 53 57 63 64 66 68 71 73 73 72 73 81 83 87 90 90 91 96 105 110 112 112 110 110 111 112 115 116 115 115 113 115 114
60 57 44 28 23 28 33 34 34 36 40 43 45 46 50 54 56 62 67 67 68 68 70 72 73 74 79 80 80 84 88 87 85 93 99 106 110 109 112 114 114 113 114 115 114 114 114 114 115
61 50 36 21 27 32 37 39 41 40 42 45 48 49 51 56 58 61 64 65 66 65 68 72 74 78 81 81 80 82 84 87 87 92 98 99 105 108 111 116 116 116 114 114 115 115 116 115 115
64 52 34 22 29 33 37 39 44 43 43 47 49 50 52 54 57 58 61 64 64 65 63 67 73 80 81 79 80 81 82 84 89 93 95 96 99 105 110 112 114 113 113 113 112 112 112 113 113
74 59 34 23 28 35 38 41 45 46 46 46 49 51 51 52 54 54 57 60 61 62 65 71 72 76 80 81 82 82 82 86 90 97 98 98 97 99 107 110 116 114 113 115 113 112 110 109 109
69 67 42 31 28 38 40 43 47 48 48 47 48 51 50 51 52 53 57 59 61 60 60 67 64 69 74 78 81 81 83 90 91 97 99 99 99 98 101 109 115 119 116 115 114 113 110 105 102
46 64 41 32 40 43 44 46 45 46 47 46 47 49 49 50 51 52 57 59 60 58 57 60 62 63 64 68 70 72 78 82 83 89 95 97 99 99 100 107 110 112 111 114 114 110 106 100 95
51 50 39 37 45 44 46 45 45 45 47 46 46 48 50 51 51 51 54 55 55 55 55 57 59 59 59 60 62 61 66 75 77 84 92 97 100 99 100 104 105 106 109 109 109 104 98 92 87
54 53 45 42 47 48 49 47 46 46 47 47 47 46 47 48 49 50 51 51 50 49 51 55 57 55 55 56 60 61 61 70 75 77 85 99 102 102 101 102 106 103 104 104 105 99 95 87 81
49 49 43 43 46 47 47 46 45 44 44 46 47 45 47 48 47 48 47 47 46 45 45 47 50 50 46 45 50 56 65 71 78 82 86 93 98 98 100 103 108 105 104 102 95 97 87 77 63
64 45 44 43 42 45 44 41 40 41 42 43 43 41 42 44 43 44 45 47 46 44 43 43 44 46 45 44 45 53 64 70 75 76 82 91 102 96 88 98 105 102 103 109 99 98 84 46 15
69 35 32 28 31 29 39 38 32 36 37 39 39 39 40 41 41 40 41 43 43 43 41 41 43 46 46 46 49 52 53 53 57 62 66 79 93 90 73 84 99 95 76 96 68 63 319 312 314
66 16 19 4 18 20 31 30 22 31 33 35 37 38 40 41 40 40 41 41 41 40 38 39 41 42 43 43 46 49 51 53 49 51 53 64 73 76 83 258 295 264 270 275 284 288 295 298 301
185 358 341 342 351 360 21 9 11 19 24 30 33 34 37 39 39 39 40 39 39 39 37 38 39 40 39 43 44 43 46 45 40 37 31 18 6 346 320 301 293 284 281 281 289 290 294 298 301
243 179 289 306 321 349 3 352 357 11 15 19 27 30 31 33 37 37 38 36 37 37 36 37 38 40 39 39 36 32 29 27 25 21 9 351 336 320 301 297 299 295 294 296 289 289 295 293 296
220 220 237 270 298 340 347 344 350 1 7 9 18 25 27 28 33 34 34 34 35 35 37 38 36 35 35 33 29 25 21 19 17 15 9 355 333 320 303 288 288 287 285 287 286 289 292 293 295
214 225 243 272 290 319 317 325 334 344 356 359 7 18 22 24 26 28 28 32 33 35 35 36 36 33 32 28 24 20 17 12 10 7 358 351 336 318 304 297 291 288 285 282 285 289 290 293 295
218 223 233 251 267 298 303 295 316 330 340 348 356 5 13 18 22 25 28 30 30 32 32 33 31 29 29 28 25 19 12 6 3 1 354 348 340 324 307 298 292 290 289 291 291 294 294 294 297
221 228 231 242 260 266 276 277 296 312 325 336 344 353 3 10 16 20 22 25 26 28 29 30 27 25 24 22 19 14 9 3 2 1 357 348 337 325 311 305 300 295 293 294 293 294 295 294 294
221 228 232 239 251 250 253 266 274 278 301 321 331 343 354 0 6 12 15 19 21 22 23 22 21 20 19 17 15 14 11 6 3 3 359 352 345 335 321 309 303 299 296 294 292 295 296 296 296
222 226 234 239 246 248 250 262 265 267 283 299 302 325 336 341 347 2 7 10 13 16 17 18 16 14 12 11 10 11 10 8 6 3 359 351 344 338 331 323 315 308 303 298 295 294 295 296 298
223 225 236 252 254 256 252 257 268 278 279 285 295 305 316 327 331 346 356 1 5 7 9 10 11 9 8 7 5 4 3 2 1 359 357 353 343 337 330 323 321 316 310 303 299 295 292 295 297
228 221 226 243 258 263 252 253 256 269 277 283 286 288 296 312 323 329 336 343 348 353 357 359 1 3 4 2 1 1 2 359 357 354 354 352 347 339 332 327 321 314 310 306 302 303 300 299 300
225 226 229 243 253 262 263 253 249 257 265 272 281 281 283 290 299 311 318 326 332 339 344 347 350 354 357 358 357 357 357 356 356 354 353 351 346 340 335 331 327 321 315 308 306 305 305 304 303
223 226 228 234 244 248 256 253 253 251 258 266 273 280 282 288 292 295 303 312 318 324 331 334 337 342 346 350 352 352 351 350 351 352 349 345 342 339 337 334 331 326 321 314 307 305 304 304 304
227 225 225 232 235 244 251 251 254 259 255 263 272 274 278 283 290 294 299 303 307 314 319 323 327 330 335 339 343 344 345 346 346 348 349 345 343 342 340 337 336 331 325 319 312 309 308 308 307
231 228 227 233 232 236 250 260 254 258 262 264 270 272 272 280 285 289 292 295 296 301 308 313 317 320 324 329 333 336 339 342 343 342 342 342 341 340 339 337 333 331 328 322 315 311 309 310 309
Height
5895 5893 5892 5890 5890 5891 5889 5888 5887 5885 5884 5882 5881 5880 5879 5878 5878 5879 5876 5873 5873 5872 5872 5871 5871 5871 5871 5871 5871 5871 5870 5870 5869 5869 5868 5869 5869 5869 5870 5871 5871 5872 5873 5874 5875 5876 5877 5878 5879
5898 5896 5893 5893 5895 5894 5892 5890 5889 5887 5886 5884 5882 5881 5880 5879 5878 5878 5876 5875 5875 5874 5873 5873 5873 5873 5873 5873 5873 5872 5872 5872 5871 5871 5871 5870 5871 5871 5872 5873 5874 5874 5875 5876 5877 5878 5879 5880 5881
5900 5897 5896 5900 5900 5896 5895 5892 5890 5889 5887 5885 5884 5883 5882 5881 5880 5879 5878 5877 5876 5876 5875 5875 5875 5875 5875 5875 5874 5874 5874 5874 5873 5873 5873 5872 5873 5873 5874 5875 5876 5876 5877 5878 5879 5880 5881 5882 5883
5901 5899 5903 5904 5901 5899 5896 5894 5892 5891 5889 5887 5886 5885 5883 5882 5881 5880 5879 5879 5878 5878 5877 5876 5876 5876 5876 5876 5876 5876 5876 5875 5875 5875 5875 5874 5874 5875 5876 5877 5878 5879 5879 5880 5881 5882 5883 5884 5885
5902 5904 5907 5906 5903 5901 5899 5897 5895 5893 5890 5889 5888 5886 5885 5884 5883 5882 5881 5881 5880 5880 5879 5878 5878 5878 5878 5878 5878 5878 5878 5878 5877 5877 5877 5877 5877 5878 5878 5879 5880 5881 5882 5883 5884 5885 5885 5886 5887
5907 5911 5911 5909 5906 5904 5901 5899 5897 5895 5893 5891 5890 5889 5887 5886 5885 5884 5883 5883 5882 5882 5881 5881 5880 5880 5880 5880 5880 5880 5880 5880 5880 5880 5879 5880 5880 5880 5880 5881 5882 5883 5884 5885 5886 5887 5888 5888 5889
5914 5915 5914 5912 5909 5907 5904 5902 5900 5898 5896 5894 5892 5891 5889 5888 5887 5886 5885 5885 5884 5884 5883 5883 5883 5882 5882 5882 5882 5882 5882 5882 5882 5882 5882 5882 5883 5883 5883 5884 5884 5885 5886 5887 5888 5889 5890 5890 5891
5918 5920 5918 5915 5912 5909 5907 5905 5902 5900 5898 5897 5895 5894 5892 5891 5889 5888 5887 5887 5886 5886 5885 5885 5885 5884 5884 5884 5884 5884 5884 5884 5884 5884 5885 5885 5885 5885 5886 5886 5887 5888 5889 5889 5890 5891 5892 5892 5893
5922 5924 5920 5918 5915 5912 5910 5907 5905 5903 5901 5899 5898 5896 5895 5893 5892 5891 5890 5889 5888 5888 5887 5886 5887 5886 5886 5886 5886 5886 5886 5886 5886 5886 5887 5887 5887 5888 5888 5888 5889 5890 5891 5892 5892 5893 5893 5894 5894
5925 5924 5922 5920 5917 5915 5912 5910 5908 5906 5904 5902 5901 5899 5897 5896 5895 5893 5892 5891 5891 5890 5889 5889 5889 5888 5888 5888 5888 5888 5888 5888 5888 5888 5889 5889 5890 5890 5890 5891 5891 5892 5892 5893 5894 5894 5894 5895 5895
5927 5926 5924 5921 5919 5917 5915 5913 5911 5909 5907 5905 5904 5902 5900 5898 5897 5896 5895 5894 5893 5892 5892 5891 5890 5890 5890 5890 5890 5890 5890 5890 5890 5890 5891 5891 5892 5892 5892 5892 5893 5893 5894 5895 5895 5896 5896 5896 5897
5929 5927 5925 5923 5922 5920 5918 5916 5914 5912 5911 5909 5907 5905 5903 5901 5900 5899 5897 5896 5895 5895 5894 5893 5893 5892 5892 5892 5892 5891 5892 5891 5892 5892 5892 5893 5893 5893 5894 5894 5895 5895 5896 5896 5897 5897 5897 5898 5898
5930 5929 5927 5925 5924 5922 5921 5919 5917 5915 5913 5911 5910 5908 5906 5904 5903 5901 5900 5899 5898 5897 5896 5895 5895 5894 5894 5893 5893 5893 5893 5893 5893 5893 5894 5894 5894 5895 5895 5896 5896 5896 5897 5897 5898 5898 5898 5899 5899
5932 5930 5929 5928 5926 5925 5923 5921 5920 5918 5916 5914 5912 5910 5908 5907 5905 5904 5903 5902 5900 5899 5898 5897 5897 5896 5895 5895 5894 5894 5894 5893 5893 5894 5895 5895 5895 5895 5896 5896 5897 5897 5898 5898 5898 5899 5899 5899 5899
5931 5930 5930 5929 5929 5927 5925 5924 5923 5921 5919 5917 5915 5913 5911 5910 5908 5907 5905 5904 5903 5902 5901 5900 5899 5898 5897 5896 5896 5896 5895 5895 5895 5895 5895 5896 5896 5896 5897 5897 5897 5898 5898 5898 5899 5899 5899 5899 5899
5932 5933 5932 5932 5931 5930 5929 5927 5926 5924 5922 5920 5918 5916 5914 5912 5911 5909 5908 5906 5905 5904 5903 5902 5901 5900 5899 5898 5898 5897 5897 5897 5897 5896 5896 5896 5897 5897 5897 5897 5898 5898 5898 5898 5899 5899 5899 5899 5899
5933 5934 5935 5935 5933 5932 5930 5929 5928 5926 5924 5922 5920 5918 5917 5915 5913 5912 5910 5909 5907 5906 5905 5904 5903 5902 5901 5900 5899 5899 5898 5898 5898 5897 5897 5897 5897 5897 5897 5897 5898 5898 5898 5898 5899 5899 5899 5899 5898
5936 5937 5937 5936 5935 5934 5933 5931 5929 5928 5926 5924 5922 5920 5918 5917 5916 5914 5913 5911 5910 5908 5907 5906 5905 5904 5903 5902 5901 5901 5900 5899 5899 5898 5898 5898 5897 5897 5897 5898 5898 5898 5898 5898 5898 5898 5898 5897 5897
5937 5937 5938 5937 5935 5934 5934 5932 5931 5929 5928 5926 5924 5923 5921 5919 5917 5916 5915 5914 5912 5910 5909 5908 5907 5905 5904 5904 5903 5902 5901 5900 5900 5899 5898 5898 5897 5897 5897 5897 5897 5897 5897 5897 5897 5897 5897 5896 5896
5936 5937 5938 5937 5935 5935 5933 5933 5932 5931 5929 5928 5926 5924 5923 5921 5919 5918 5917 5915 5914 5912 5911 5910 5909 5907 5906 5905 5904 5903 5902 5901 5900 5899 5899 5898 5898 5897 5897 5897 5897 5896 5896 5896 5896 5895 5895 5895 5894
5934 5936 5937 5937 5935 5935 5935 5933 5933 5932 5930 5929 5927 5926 5924 5923 5921 5920 5918 5917 5916 5915 5913 5912 5910 5909 5907 5906 5905 5904 5903 5902 5901 5900 5899 5898 5897 5897 5896 5896 5896 5895 5895 5895 5894 5894 5893 5893 5893
5932 5934 5934 5935 5934 5934 5935 5934 5932 5932 5930 5929 5928 5926 5925 5924 5923 5922 5920 5919 5918 5916 5915 5914 5912 5910 5909 5907 5906 5904 5903 5902 5901 5900 5899 5898 5897 5896 5895 5895 5894 5894 5894 5893 5893 5893 5892 5891 5891
5930 5931 5932 5933 5933 5933 5933 5933 5932 5931 5930 5929 5928 5927 5926 5925 5923 5923 5922 5920 5919 5918 5917 5915 5914 5912 5910 5908 5907 5905 5903 5902 5901 5900 5899 5898 5897 5896 5895 5894 5893 5893 5892 5892 5891 5891 5890 5889 5889
5927 5928 5929 5930 5930 5931 5932 5932 5930 5929 5928 5928 5927 5927 5926 5925 5924 5923 5922 5921 5920 5919 5918 5916 5915 5913 5911 5910 5908 5906 5904 5903 5901 5900 5899 5898 5896 5895 5894 5893 5892 5891 5890 5890 5889 5888 5888 5887 5887
5923 5925 5927 5928 5928 5928 5930 5931 5930 5928 5928 5926 5927 5927 5926 5925 5924 5923 5923 5922 5921 5920 5919 5918 5916 5914 5912 5911 5909 5907 5905 5903 5902 5900 5899 5898 5896 5895 5893 5892 5891 5890 5889 5888 5887 5886 5885 5885 5884
5920 5923 5925 5927 5927 5927 5928 5929 5928 5928 5927 5926 5926 5926 5926 5925 5925 5923 5923 5922 5921 5921 5919 5918 5917 5915 5913 5911 5909 5908 5906 5904 5903 5901 5899 5898 5896 5894 5893 5891 5890 5889 5887 5886 5885 5884 5883 5882 5881
5916 5919 5923 5925 5925 5926 5925 5926 5925 5925 5925 5925 5925 5925 5924 5924 5924 5923 5922 5922 5921 5920 5920 5918 5917 5916 5914 5912 5910 5908 5906 5905 5903 5901 5899 5898 5896 5894 5892 5890 5889 5887 5886 5885 5883 5882 5881 5880 5879
5912 5915 5919 5920 5922 5923 5923 5922 5922 5921 5922 5922 5923 5923 5922 5923 5922 5922 5921 5921 5920 5920 5919 5918 5917 5915 5914 5912 5910 5908 5906 5904 5903 5901 5899 5897 5895 5893 5891 5889 5888 5886 5884 5882 5881 5880 5879 5878 5876
5907 5910 5913 5915 5917 5918 5920 5920 5919 5918 5918 5919 5920 5919 5919 5920 5920 5920 5920 5919 5919 5918 5918 5917 5916 5915 5913 5912 5910 5908 5906 5904 5902 5900 5899 5896 5894 5892 5890 5888 5886 5884 5882 5880 5879 5878 5876 5875 5873
5902 5905 5909 5911 5913 5914 5915 5918 5915 5916 5915 5915 5918 5918 5916 5917 5918 5918 5918 5917 5916 5916 5916 5916 5915 5914 5912 5911 5909 5908 5906 5904 5902 5900 5898 5895 5893 5891 5889 5887 5884 5882 5880 5878 5876 5875 5874 5872 5871